KM5R Weather Reports


time (UTC)temp
C
wind
direction
speed
KPH
gust
KPH
rain 1hr
cm
rain 24hr
cm
rain mn
cm
humidity
%
barometer
mb
20260509035026 18 27 0.0 0.0 0.00 0.00 0.00 87 1012.2
20260509034525 18 26 0.0 0.0 0.00 0.00 0.00 87 1012.1
20260509034021 18 271 3.2 3.2 0.00 0.00 0.00 87 1012.0
20260509033518 18 238 3.2 3.2 0.00 0.00 0.00 87 1012.1
20260509033015 18 41 0.0 0.0 0.00 0.00 0.00 87 1012.2
20260509032512 18 99 0.0 0.0 0.00 0.00 0.00 87 1012.0
20260509032009 18 162 1.6 1.6 0.00 0.00 0.00 86 1012.0
20260509031507 18 74 0.0 0.0 0.00 0.00 0.00 86 1012.1
20260509031004 18 74 0.0 0.0 0.00 0.00 0.00 86 1012.0
20260509030502 18 74 0.0 0.0 0.00 0.00 0.00 86 1011.9
20260509025954 19 74 0.0 0.0 0.00 0.00 0.00 86 1011.7
20260509025449 19 74 0.0 0.0 0.00 0.00 0.00 86 1011.7
20260509024944 19 74 0.0 0.0 0.00 0.00 0.00 86 1011.5
20260509024441 19 74 0.0 0.0 0.00 0.00 0.00 86 1011.6
20260509023937 20 76 1.6 1.6 0.00 0.00 0.00 86 1011.3
20260509023435 19 63 0.0 0.0 0.00 0.00 0.00 85 1011.7
20260509022931 19 62 1.6 1.6 0.00 0.00 0.00 85 1011.4
20260509022428 19 69 1.6 1.6 0.00 0.00 0.00 85 1011.2
20260509021926 19 74 0.0 0.0 0.00 0.00 0.00 85 1011.5
20260509021423 20 74 0.0 0.0 0.00 0.00 0.00 85 1011.6
20260509020920 20 74 0.0 0.0 0.00 0.00 0.00 84 1011.0
20260509020418 20 75 0.0 0.0 0.00 0.00 0.00 84 1010.9
20260509015915 20 75 0.0 0.0 0.00 0.00 0.00 84 1010.8
20260509015414 20 75 0.0 1.6 0.00 0.00 0.00 84 1010.8
20260509014910 20 87 1.6 1.6 0.00 0.00 0.00 84 1011.0
20260509014407 20 81 1.6 1.6 0.00 0.00 0.00 84 1010.9
20260509013904 20 103 3.2 3.2 0.00 0.00 0.00 84 1011.0
20260509013401 20 99 4.8 4.8 0.00 0.00 0.00 83 1010.8
20260509012856 20 66 1.6 3.2 0.00 0.00 0.00 83 1010.7
20260509012353 20 97 3.2 3.2 0.00 0.00 0.00 83 1010.9
20260509011850 20 85 6.4 8.0 0.00 0.00 0.00 83 1010.8
20260509011348 21 75 1.6 1.6 0.00 0.00 0.00 82 1010.9
20260509010845 21 67 1.6 1.6 0.00 0.00 0.00 82 1010.8
20260509010343 21 85 4.8 8.0 0.00 0.00 0.00 82 1010.6
20260509005840 21 81 9.7 12.9 0.00 0.00 0.00 81 1010.5
20260509005337 21 53 1.6 1.6 0.00 0.00 0.00 81 1010.9
20260509004838 21 49 1.6 1.6 0.00 0.00 0.00 81 1010.6
20260509004334 21 77 8.0 11.3 0.00 0.00 0.00 81 1010.7
20260509003832 21 79 8.0 9.7 0.00 0.00 0.00 81 1010.8
20260509003330 21 80 6.4 8.0 0.00 0.00 0.00 81 1010.9
20260509002827 21 77 4.8 8.0 0.00 0.00 0.00 81 1010.8
20260509002324 21 77 4.8 8.0 0.00 0.00 0.00 80 1011.0
20260509001822 21 105 4.8 4.8 0.00 0.00 0.00 80 1011.0
20260509001317 21 62 3.2 3.2 0.00 0.00 0.00 80 1011.0
20260509000815 21 94 8.0 9.7 0.00 0.00 0.00 80 1010.9
20260509000313 21 91 11.3 12.9 0.00 0.00 0.00 80 1010.9
20260508235809 21 80 9.7 11.3 0.00 0.00 0.00 80 1010.9
20260508235307 21 81 6.4 9.7 0.00 0.00 0.00 80 1010.8
20260508234803 21 63 11.3 11.3 0.00 0.00 0.00 79 1011.1
20260508234259 21 79 3.2 3.2 0.00 0.00 0.00 79 1011.0
20260508233758 22 111 11.3 12.9 0.00 0.00 0.00 79 1011.0
20260508233257 22 71 9.7 12.9 0.00 0.00 0.00 79 1010.8
20260508232753 22 93 4.8 4.8 0.00 0.00 0.00 79 1010.9
20260508232250 22 99 11.3 12.9 0.00 0.00 0.00 79 1010.9
20260508231748 22 107 8.0 11.3 0.00 0.00 0.00 79 1010.8
20260508231244 22 85 14.5 16.1 0.00 0.00 0.00 79 1010.9
20260508230741 22 79 11.3 16.1 0.00 0.00 0.00 79 1010.9
20260508230237 22 83 4.8 11.3 0.00 0.00 0.00 78 1010.9
20260508225735 22 116 11.3 14.5 0.00 0.00 0.00 78 1010.9
20260508225231 22 87 14.5 16.1 0.00 0.00 0.00 78 1010.8
20260508224729 22 65 8.0 11.3 0.00 0.00 0.00 78 1011.1
20260508224227 22 50 8.0 9.7 0.00 0.00 0.00 78 1010.8
20260508223724 22 73 9.7 12.9 0.00 0.00 0.00 77 1011.0
20260508223221 22 92 12.9 17.7 0.00 0.00 0.00 78 1011.0
20260508222719 22 68 4.8 9.7 0.00 0.00 0.00 77 1010.9
20260508222216 22 62 8.0 9.7 0.00 0.00 0.00 78 1010.9
20260508221712 22 119 11.3 12.9 0.00 0.00 0.00 78 1011.0
20260508221208 22 86 14.5 16.1 0.00 0.00 0.00 78 1011.0
20260508220704 22 82 8.0 12.9 0.00 0.00 0.00 77 1011.3
20260508220201 23 92 6.4 9.7 0.00 0.00 0.00 76 1011.0
20260508215658 23 83 4.8 8.0 0.00 0.00 0.00 76 1011.1
20260508215154 22 88 4.8 4.8 0.00 0.00 0.00 78 1011.1
20260508214651 22 78 8.0 9.7 0.00 0.00 0.00 78 1011.2
20260508214149 22 74 9.7 12.9 0.00 0.00 0.00 78 1011.4
20260508213645 22 83 9.7 12.9 0.00 0.00 0.00 78 1011.4
20260508213141 22 61 8.0 12.9 0.00 0.00 0.00 77 1011.3
20260508212638 22 57 9.7 11.3 0.00 0.00 0.00 77 1011.3
20260508212135 22 56 8.0 11.3 0.00 0.00 0.00 77 1011.6
20260508211635 22 82 4.8 8.0 0.00 0.00 0.00 78 1011.6
20260508211131 22 54 3.2 8.0 0.00 0.00 0.00 77 1011.7
20260508210628 22 70 4.8 4.8 0.00 0.00 0.00 76 1011.9
20260508210126 22 74 9.7 11.3 0.00 0.00 0.00 76 1012.1
20260508205623 22 38 3.2 3.2 0.00 0.00 0.00 76 1012.0
20260508205119 22 51 3.2 4.8 0.00 0.00 0.00 75 1012.2
20260508204615 22 115 3.2 3.2 0.00 0.00 0.00 76 1012.2
20260508204112 21 92 3.2 3.2 0.00 0.00 0.00 77 1012.2
20260508203608 21 75 4.8 8.0 0.00 0.00 0.00 76 1012.3
20260508203104 22 15 4.8 8.0 0.00 0.00 0.00 76 1012.1
20260508202600 21 117 6.4 11.3 0.00 0.00 0.00 77 1012.5
20260508202058 21 105 9.7 11.3 0.00 0.00 0.00 78 1012.5
20260508201554 21 72 11.3 14.5 0.00 0.00 0.00 78 1012.7
20260508201051 21 50 6.4 9.7 0.00 0.00 0.00 78 1013.0
20260508200548 21 70 8.0 9.7 0.00 0.00 0.00 78 1012.7
20260508200043 21 73 11.3 12.9 0.00 0.00 0.00 78 1012.8
20260508195541 21 69 9.7 11.3 0.00 0.00 0.00 78 1012.8
20260508195037 21 85 3.2 8.0 0.00 0.00 0.00 78 1012.9
20260508194534 20 62 9.7 11.3 0.00 0.00 0.00 78 1013.0
20260508194031 20 67 4.8 4.8 0.00 0.00 0.00 78 1012.8
20260508193527 21 37 6.4 12.9 0.00 0.00 0.00 78 1012.8
20260508193024 21 76 9.7 11.3 0.00 0.00 0.00 77 1013.0
20260508192521 20 67 3.2 3.2 0.00 0.00 0.00 78 1013.1
20260508192018 20 66 11.3 14.5 0.00 0.00 0.00 78 1013.0
20260508191515 20 45 4.8 4.8 0.00 0.00 0.00 78 1013.3
20260508191011 20 72 8.0 9.7 0.00 0.00 0.00 79 1013.3
20260508190509 19 65 4.8 11.3 0.00 0.00 0.00 80 1013.5
20260508190005 19 74 1.6 3.2 0.00 0.00 0.00 80 1013.6
20260508185503 19 77 4.8 8.0 0.00 0.00 0.00 80 1013.6
20260508185000 19 57 4.8 4.8 0.00 0.00 0.00 81 1013.8
20260508184457 18 56 1.6 1.6 0.00 0.00 0.00 81 1013.8
20260508183954 18 70 4.8 8.0 0.00 0.00 0.00 81 1013.6
20260508183450 18 67 11.3 12.9 0.00 0.00 0.00 81 1013.5
20260508182945 18 50 3.2 3.2 0.00 0.00 0.00 81 1013.8
20260508182443 18 50 3.2 3.2 0.00 0.00 0.00 80 1014.0
20260508181944 18 48 1.6 3.2 0.00 0.00 0.00 81 1013.8
20260508181440 18 71 8.0 9.7 0.00 0.00 0.00 81 1014.2
20260508180938 18 54 3.2 3.2 0.00 0.00 0.00 81 1014.2
20260508180435 18 13 4.8 4.8 0.00 0.00 0.00 81 1014.3
20260508175931 18 53 4.8 4.8 0.00 0.00 0.00 81 1014.3
20260508175427 18 86 1.6 3.2 0.00 0.00 0.00 81 1014.4
20260508174926 18 35 4.8 8.0 0.00 0.00 0.00 81 1014.5
20260508174423 18 80 4.8 8.0 0.00 0.00 0.00 81 1014.8
20260508173919 18 88 9.7 11.3 0.00 0.00 0.00 81 1014.5
20260508173417 18 59 6.4 9.7 0.00 0.00 0.00 81 1014.6
20260508172912 18 76 8.0 9.7 0.00 0.00 0.00 81 1015.1
20260508172410 18 85 6.4 8.0 0.00 0.00 0.00 81 1015.0
20260508171906 18 68 1.6 3.2 0.00 0.00 0.00 81 1015.0
20260508171402 18 66 9.7 12.9 0.00 0.00 0.00 81 1014.9
20260508170859 18 36 4.8 4.8 0.00 0.00 0.00 80 1014.8
20260508170357 18 55 1.6 3.2 0.00 0.00 0.00 80 1014.9
20260508165853 18 53 0.0 1.6 0.00 0.00 0.00 81 1015.0
20260508165351 18 58 4.8 4.8 0.00 0.00 0.00 81 1015.1
20260508164846 18 46 8.0 11.3 0.00 0.00 0.00 80 1015.3
20260508164344 18 43 1.6 3.2 0.00 0.00 0.00 80 1015.6
20260508163841 18 43 3.2 3.2 0.00 0.00 0.00 81 1015.5
20260508163339 17 92 1.6 1.6 0.00 0.00 0.00 81 1015.5
20260508162834 17 110 4.8 4.8 0.00 0.00 0.00 81 1015.6
20260508162331 17 70 3.2 3.2 0.00 0.00 0.00 81 1015.5
20260508161829 17 90 3.2 3.2 0.00 0.00 0.00 81 1015.5
20260508161326 17 65 3.2 3.2 0.00 0.00 0.00 81 1015.7
20260508160823 17 79 3.2 3.2 0.00 0.00 0.00 81 1015.6
20260508160322 17 64 1.6 1.6 0.00 0.00 0.00 81 1015.5
20260508155818 17 87 3.2 3.2 0.00 0.00 0.00 80 1015.6
20260508155315 17 74 3.2 3.2 0.00 0.00 0.00 80 1015.6
20260508154812 17 78 3.2 3.2 0.00 0.00 0.00 80 1015.4
20260508154310 17 59 1.6 1.6 0.00 0.00 0.00 80 1015.4
20260508153806 18 52 0.0 0.0 0.00 0.00 0.00 80 1015.3
20260508153304 17 65 1.6 1.6 0.00 0.00 0.00 80 1015.3
20260508152759 17 63 1.6 3.2 0.00 0.00 0.00 80 1015.4
20260508152255 17 31 3.2 4.8 0.00 0.00 0.00 81 1015.4
20260508151752 17 19 0.0 1.6 0.00 0.00 0.00 82 1015.1
20260508151249 17 26 6.4 8.0 0.00 0.00 0.00 82 1014.9
20260508150745 16 343 3.2 3.2 0.00 0.00 0.00 82 1015.0
20260508150242 16 349 4.8 8.0 0.00 0.00 0.00 82 1015.3
20260508145738 16 28 1.6 1.6 0.00 0.00 0.00 83 1015.5
20260508145234 16 28 0.0 0.0 0.00 0.00 0.00 83 1015.7
20260508144731 16 22 1.6 1.6 0.00 0.00 0.00 83 1015.8
20260508144230 16 31 1.6 1.6 0.00 0.00 0.00 83 1015.7
20260508143726 16 32 1.6 3.2 0.00 0.00 0.00 83 1015.9
20260508143224 15 15 1.6 1.6 0.00 0.00 0.00 84 1015.9
20260508142720 16 38 1.6 1.6 0.00 0.00 0.00 84 1015.7
20260508142217 16 42 0.0 0.0 0.00 0.00 0.00 84 1015.7
20260508141713 15 42 0.0 1.6 0.00 0.00 0.00 84 1015.9
20260508141211 15 93 0.0 0.0 0.00 0.00 0.00 84 1015.8
20260508140708 15 94 0.0 0.0 0.00 0.00 0.00 84 1015.9
20260508140205 15 96 0.0 0.0 0.00 0.00 0.00 85 1016.1
20260508135701 15 104 3.2 3.2 0.00 0.00 0.00 85 1016.2
20260508135201 15 88 1.6 1.6 0.00 0.00 0.00 85 1015.9
20260508134658 15 58 0.0 0.0 0.00 0.00 0.00 86 1015.7
20260508134155 15 59 0.0 0.0 0.00 0.00 0.00 86 1016.1
20260508133652 15 54 1.6 1.6 0.00 0.00 0.00 86 1015.9
20260508133149 15 91 3.2 3.2 0.00 0.00 0.00 86 1016.3
20260508132647 15 85 1.6 3.2 0.00 0.00 0.00 86 1016.2
20260508132144 15 91 4.8 4.8 0.00 0.00 0.00 86 1016.4
20260508131640 15 76 0.0 0.0 0.00 0.00 0.00 87 1016.4
20260508131136 15 72 1.6 1.6 0.00 0.00 0.00 87 1016.2
20260508130633 15 82 0.0 1.6 0.00 0.00 0.00 87 1016.5
20260508130131 15 140 1.6 1.6 0.00 0.00 0.00 87 1016.5
20260508125631 14 140 3.2 3.2 0.00 0.00 0.00 87 1016.4
20260508125128 14 133 0.0 0.0 0.00 0.00 0.00 87 1016.3
20260508124626 15 32 0.0 0.0 0.00 0.00 0.00 87 1016.3
20260508124123 14 16 0.0 0.0 0.00 0.00 0.00 87 1016.1
20260508123621 14 53 0.0 0.0 0.00 0.00 0.00 87 1016.3
20260508123119 14 44 0.0 0.0 0.00 0.00 0.00 87 1016.3
20260508122615 14 44 0.0 0.0 0.00 0.00 0.00 87 1016.1
20260508122112 13 44 0.0 0.0 0.00 0.00 0.00 87 1016.0
20260508121610 13 40 0.0 0.0 0.00 0.00 0.00 87 1015.9
20260508121108 14 327 1.6 1.6 0.00 0.00 0.00 87 1016.3
20260508120605 13 2 0.0 0.0 0.00 0.00 0.00 87 1016.1
20260508120103 13 79 0.0 0.0 0.00 0.00 0.00 87 1016.1
20260508115600 13 80 0.0 0.0 0.00 0.00 0.00 87 1016.2
20260508115057 13 91 0.0 0.0 0.00 0.00 0.00 87 1016.0
20260508114554 13 71 0.0 0.0 0.00 0.00 0.00 88 1016.1
20260508114050 13 84 1.6 1.6 0.00 0.00 0.00 88 1016.1
20260508113548 13 84 1.6 1.6 0.00 0.00 0.00 88 1016.1
20260508113046 13 107 3.2 3.2 0.00 0.00 0.00 88 1016.2
20260508112542 13 89 4.8 4.8 0.00 0.00 0.00 88 1016.0
20260508112039 13 61 0.0 0.0 0.00 0.00 0.00 88 1015.8
20260508111536 13 41 1.6 1.6 0.00 0.00 0.00 88 1015.9
20260508111032 13 68 0.0 0.0 0.00 0.00 0.00 88 1016.2
20260508110531 13 65 0.0 0.0 0.00 0.00 0.00 88 1016.1
20260508110026 13 93 1.6 1.6 0.00 0.00 0.00 88 1016.2
20260508105521 13 104 0.0 0.0 0.00 0.00 0.00 88 1016.3
20260508105019 13 84 0.0 0.0 0.00 0.00 0.00 88 1016.1
20260508104517 13 83 0.0 0.0 0.00 0.00 0.00 88 1016.1
20260508104013 13 73 0.0 0.0 0.00 0.00 0.00 88 1016.2
20260508103510 13 74 3.2 3.2 0.00 0.00 0.00 88 1016.1
20260508103007 13 66 1.6 1.6 0.00 0.00 0.00 88 1016.4
20260508102505 13 72 3.2 4.8 0.00 0.00 0.00 89 1016.4
20260508102002 13 81 0.0 1.6 0.00 0.00 0.00 89 1016.8
20260508101459 13 109 3.2 3.2 0.00 0.00 0.00 89 1016.4
20260508100956 13 88 1.6 1.6 0.00 0.00 0.00 89 1016.5
20260508100455 13 44 1.6 3.2 0.00 0.00 0.00 90 1016.2
20260508095951 13 53 8.0 9.7 0.00 0.00 0.00 90 1016.3
20260508095449 12 101 4.8 4.8 0.00 0.00 0.00 90 1016.2
20260508094945 12 119 6.4 8.0 0.00 0.00 0.00 90 1016.0
20260508094442 12 79 3.2 4.8 0.00 0.00 0.00 90 1015.9
20260508093939 12 77 3.2 4.8 0.00 0.00 0.00 90 1015.9
20260508093436 12 107 3.2 3.2 0.00 0.00 0.00 90 1016.2
20260508092934 12 101 1.6 1.6 0.00 0.00 0.00 90 1016.4
20260508092432 12 113 3.2 3.2 0.00 0.00 0.00 90 1016.6
20260508091930 12 114 3.2 4.8 0.00 0.00 0.00 90 1016.7
20260508091426 12 37 0.0 1.6 0.00 0.00 0.00 90 1016.5
20260508090923 12 84 3.2 3.2 0.00 0.00 0.00 90 1016.5
20260508090422 12 82 1.6 1.6 0.00 0.00 0.00 90 1016.8
20260508085917 12 30 0.0 0.0 0.00 0.00 0.00 90 1017.0
20260508085415 12 25 0.0 0.0 0.00 0.00 0.00 90 1017.0
20260508084911 12 18 0.0 0.0 0.00 0.00 0.00 90 1017.2
20260508084408 12 289 0.0 0.0 0.00 0.00 0.00 90 1017.1
20260508083906 12 350 0.0 0.0 0.00 0.00 0.00 90 1017.1
20260508083403 12 275 1.6 1.6 0.00 0.00 0.00 90 1017.1
20260508082902 11 302 1.6 1.6 0.00 0.00 0.00 90 1016.9
20260508082400 11 302 3.2 3.2 0.00 0.00 0.00 90 1017.0
20260508081858 11 281 4.8 4.8 0.00 0.00 0.00 90 1016.8
20260508081354 11 308 3.2 3.2 0.00 0.00 0.00 90 1016.9
20260508080851 11 327 1.6 3.2 0.00 0.00 0.00 90 1016.8
20260508080349 11 350 1.6 1.6 0.00 0.00 0.00 90 1017.0
20260508075845 11 280 3.2 3.2 0.00 0.00 0.00 90 1016.9
20260508075342 11 278 4.8 4.8 0.00 0.00 0.00 90 1017.0
20260508074840 11 307 1.6 3.2 0.00 0.00 0.00 90 1016.7
20260508074337 11 297 3.2 3.2 0.00 0.00 0.00 90 1016.9
20260508073834 11 336 3.2 3.2 0.00 0.00 0.00 90 1016.7
20260508073332 11 342 3.2 3.2 0.00 0.00 0.00 90 1016.6
20260508072828 11 343 3.2 3.2 0.00 0.00 0.00 90 1016.7
20260508072325 11 16 3.2 3.2 0.00 0.00 0.00 89 1016.7
20260508071822 11 96 1.6 1.6 0.00 0.00 0.00 90 1016.7
20260508071321 11 27 0.0 0.0 0.00 0.00 0.00 89 1016.6
20260508070817 11 54 0.0 0.0 0.00 0.00 0.00 89 1016.7
20260508070316 11 77 0.0 0.0 0.00 0.00 0.00 89 1016.7
20260508065813 11 100 0.0 0.0 0.00 0.00 0.00 89 1017.0
20260508065311 11 81 0.0 0.0 0.00 0.00 0.00 89 1017.0
20260508064809 11 92 0.0 0.0 0.00 0.00 0.00 89 1016.7
20260508064306 11 72 0.0 0.0 0.00 0.00 0.00 89 1016.9
20260508063803 11 73 0.0 0.0 0.00 0.00 0.00 89 1016.9
20260508063302 12 80 0.0 0.0 0.00 0.00 0.00 89 1017.0
20260508062758 12 145 4.8 4.8 0.00 0.00 0.00 89 1016.9
20260508062256 11 5 0.0 0.0 0.00 0.00 0.00 89 1016.8
20260508061752 11 5 0.0 0.0 0.00 0.00 0.00 89 1017.0
20260508061249 11 5 0.0 0.0 0.00 0.00 0.00 89 1017.1
20260508060746 11 1 0.0 0.0 0.00 0.00 0.00 89 1017.1
20260508060244 11 359 0.0 0.0 0.00 0.00 0.00 89 1017.1
20260508055739 11 359 0.0 0.0 0.00 0.15 0.15 89 1017.2
20260508055237 12 359 0.0 0.0 0.00 0.15 0.15 89 1017.0
20260508054733 12 359 0.0 0.0 0.00 0.15 0.15 89 1017.3
20260508054231 12 353 0.0 0.0 0.00 0.15 0.15 89 1017.3
20260508053728 12 353 0.0 0.0 0.00 0.15 0.15 89 1017.1
20260508053225 12 353 0.0 0.0 0.00 0.15 0.15 89 1017.1
20260508052722 12 353 0.0 0.0 0.00 0.15 0.15 89 1017.2
20260508052219 12 353 0.0 0.0 0.00 0.15 0.15 89 1017.3
20260508051715 12 353 0.0 0.0 0.00 0.15 0.15 89 1017.4
20260508051211 12 346 0.0 0.0 0.00 0.15 0.15 89 1017.3
20260508050708 12 314 1.6 3.2 0.00 0.15 0.15 89 1017.6
20260508050205 12 10 0.0 0.0 0.00 0.15 0.15 89 1017.3
20260508045700 12 23 0.0 0.0 0.00 0.15 0.15 89 1017.7
20260508045159 12 23 0.0 0.0 0.00 0.15 0.15 89 1017.5
20260508044655 12 23 0.0 0.0 0.00 0.15 0.15 89 1017.9
20260508044152 12 344 0.0 0.0 0.00 0.15 0.15 89 1017.7
20260508043648 12 16 0.0 0.0 0.00 0.15 0.15 89 1017.8
20260508043146 12 15 0.0 0.0 0.00 0.15 0.15 89 1017.9
20260508042642 12 15 0.0 0.0 0.00 0.15 0.15 89 1017.9
20260508042140 12 14 0.0 0.0 0.00 0.15 0.15 89 1017.9
20260508041636 12 4 0.0 0.0 0.00 0.15 0.15 89 1018.2
20260508041133 12 288 0.0 0.0 0.00 0.15 0.15 89 1017.9
20260508040629 12 258 0.0 0.0 0.00 0.15 0.15 89 1018.1
20260508040127 12 261 0.0 0.0 0.00 0.15 0.15 89 1017.8
20260508035624 12 260 0.0 0.0 0.00 0.15 0.15 89 1017.7